RH
12 14 14 15 20 26 21 29 40 42 43 38 32 26 23 26 30 33 37 51 67 69 73 76 70 68 76 80 66 60 57 89 90 93 99 92 80 31 28 38 52 54 26 20 16 38 38
12 14 15 15 19 27 22 34 38 43 45 42 40 25 28 29 28 33 40 47 66 83 75 81 82 83 85 87 80 92 72 89 84 99 99 95 47 34 35 41 70 59 38 34 23 31 34
12 13 15 15 18 28 24 34 38 41 48 46 45 30 27 28 34 42 50 50 65 82 86 87 88 96 96 98 85 96 99 96 97 97 98 88 45 66 53 69 69 56 46 46 36 37 39
10 12 14 16 16 26 28 30 36 42 49 49 47 42 44 51 56 64 69 75 79 90 92 97 93 97 98 98 98 98 98 98 98 96 97 98 98 92 70 69 68 55 52 52 51 46 44
9 11 13 15 16 22 32 27 39 41 47 50 51 52 44 51 59 63 74 84 81 88 93 79 82 90 97 95 98 94 93 95 97 88 96 97 99 95 64 62 68 55 51 51 52 47 43
10 10 12 13 17 18 32 28 37 42 45 47 53 55 55 53 55 62 68 90 83 98 97 93 84 90 86 95 95 94 87 84 93 98 95 98 98 95 75 64 63 51 44 47 50 50 45
15 10 10 12 16 16 24 34 29 42 44 47 48 53 58 60 63 68 75 91 85 91 99 98 93 91 82 89 95 94 94 76 64 90 97 98 89 90 60 52 42 45 35 42 43 46 43
26 15 10 10 12 17 16 32 31 38 45 48 50 53 54 57 61 68 73 90 92 90 82 85 100 100 88 99 93 97 87 99 77 72 96 93 84 83 74 69 50 41 28 34 32 32 28
30 28 14 10 10 12 18 17 36 30 43 48 50 51 54 57 62 69 70 82 98 90 97 95 92 94 96 91 99 98 94 97 91 90 93 97 86 80 75 66 50 38 28 26 24 25 24
23 33 27 13 9 10 13 16 18 37 31 45 49 50 53 53 62 64 68 76 85 92 92 99 98 96 97 85 99 100 96 99 100 89 96 94 87 78 72 58 49 40 31 22 19 19 23
20 27 35 26 11 9 11 13 14 21 37 40 47 48 50 52 58 62 66 88 91 99 89 93 98 98 90 89 89 90 98 98 95 100 94 91 80 76 72 57 48 42 40 31 24 23 21
16 24 32 35 23 10 10 10 13 14 29 32 44 45 49 54 62 71 67 79 79 78 93 93 98 98 98 97 94 95 97 99 100 97 94 88 74 71 66 60 49 41 49 40 35 30 38
12 18 25 34 37 22 10 10 10 13 16 34 37 45 48 56 58 65 71 79 84 89 95 95 98 98 98 98 97 99 100 99 99 91 79 96 66 61 59 54 52 45 45 38 49 51 62
9 15 20 23 36 41 21 11 10 11 13 23 33 36 47 55 60 64 64 71 89 99 100 100 96 100 97 97 98 99 100 98 86 72 72 64 71 61 58 53 54 53 36 32 52 59 61
10 12 18 20 27 39 45 21 11 11 12 14 28 35 44 52 53 55 58 59 80 94 86 92 90 94 95 95 96 90 98 94 86 69 59 59 62 59 55 51 51 48 36 38 30 48 48
12 9 15 22 21 32 42 47 22 12 12 13 16 27 37 50 52 54 60 66 72 79 81 84 83 83 94 88 87 86 93 93 78 68 57 54 56 59 52 49 48 43 38 39 40 60 36
8 11 11 21 21 26 28 41 44 21 13 13 14 20 30 45 55 59 63 75 77 84 93 88 81 75 75 80 76 71 74 82 89 74 58 44 48 59 49 45 44 44 40 34 40 40 70
4 13 10 14 23 21 20 27 43 38 18 13 15 15 18 30 42 50 57 67 74 79 86 89 74 77 79 77 73 65 71 69 80 62 53 50 43 51 46 38 37 33 35 29 32 37 52
5 11 12 10 17 19 20 18 33 43 29 15 14 15 14 15 34 44 46 54 66 75 76 73 74 76 75 74 72 66 59 59 63 54 63 52 44 49 48 41 35 31 27 26 27 32 39
8 5 15 12 10 16 18 17 24 32 42 29 17 15 17 16 16 28 39 54 57 58 66 74 70 71 68 66 66 65 64 60 58 59 60 60 49 35 32 30 31 29 24 23 24 32 28
13 5 12 14 11 11 13 17 16 21 34 40 30 18 16 15 17 17 18 24 45 58 59 59 68 66 62 63 61 63 48 63 58 55 57 61 54 52 41 32 30 30 27 24 25 23 21
18 11 6 16 14 11 9 12 14 15 20 32 40 31 22 19 16 21 21 19 21 24 33 46 60 68 68 61 60 49 43 52 55 46 44 44 52 45 44 40 40 28 27 29 23 23 25
23 15 8 10 16 14 11 9 10 13 12 17 31 40 38 38 22 21 19 19 20 22 23 23 27 48 59 58 56 51 47 42 40 41 43 45 42 40 43 41 44 38 22 19 19 16 13
33 20 12 5 17 15 13 11 9 9 11 10 22 35 42 42 34 30 28 22 20 20 21 22 23 23 22 27 51 52 58 55 54 48 46 43 44 36 22 32 38 22 19 19 19 15 16
35 33 18 8 5 20 15 13 12 10 9 10 11 23 34 41 43 43 46 38 24 23 21 21 22 21 22 21 22 23 27 33 42 53 50 52 47 29 21 22 16 14 12 15 14 14 18
24 31 31 18 5 11 22 15 13 13 11 9 9 10 19 30 41 47 47 47 36 32 28 23 23 22 20 23 23 22 22 19 21 19 26 30 42 37 26 20 17 16 14 12 14 12 11
44 28 24 30 21 6 15 23 20 15 13 11 9 9 10 19 32 43 46 49 46 45 41 40 34 29 23 23 24 23 27 32 33 27 23 26 29 30 25 20 8 10 16 18 15 10 10
96 56 25 23 29 24 10 16 25 25 17 13 11 10 10 9 15 23 44 46 47 53 52 48 45 35 31 27 28 28 24 27 20 21 26 22 18 18 25 25 15 13 16 18 14 14 12
100 88 67 79 28 26 29 22 24 31 28 19 14 12 10 10 11 14 25 28 42 51 55 55 46 41 30 28 32 31 30 25 27 25 24 24 16 19 15 14 17 21 24 23 22 23 22
Wind_Speed
12 14 15 16 17 20 21 21 21 20 18 18 19 19 19 19 20 20 20 21 22 15 11 8 11 15 16 18 23 20 31 36 43 33 37 35 35 36 41 41 40 29 32 31 31 36 33
12 13 14 16 17 19 20 20 20 20 19 16 18 18 17 18 19 19 19 18 19 16 12 9 6 11 15 19 21 19 30 40 46 50 30 37 35 34 38 37 34 26 25 26 34 31 33
11 13 14 15 17 18 19 20 20 20 18 15 16 18 16 15 17 16 16 16 16 12 11 8 8 10 11 10 16 12 26 39 40 24 28 32 35 32 35 36 32 24 23 25 31 32 34
10 12 13 15 17 17 18 19 20 20 17 15 15 16 14 15 16 18 19 18 14 7 5 6 5 3 2 4 6 9 32 26 20 23 33 33 37 27 31 35 30 25 23 27 31 34 34
10 11 12 14 16 16 17 18 20 21 20 16 14 15 15 14 16 18 23 22 15 4 2 4 2 3 4 5 7 9 15 19 19 25 33 37 30 26 34 33 32 28 23 27 31 32 33
10 11 12 14 16 16 17 18 19 21 20 18 14 14 15 16 17 19 19 24 14 4 4 2 3 2 1 4 9 10 11 17 17 17 35 16 29 25 33 31 31 27 23 24 26 28 24
10 11 11 12 15 16 16 18 18 20 20 19 16 14 15 16 18 19 17 20 9 5 1 1 3 6 2 6 9 10 9 17 19 18 24 16 24 29 35 32 23 22 19 22 20 25 20
10 11 12 12 14 15 16 17 17 18 20 19 17 15 14 16 14 15 14 13 10 7 8 5 4 3 2 13 9 11 11 13 15 18 26 28 27 24 28 22 12 20 21 28 19 21 18
10 11 12 13 13 15 15 16 17 17 18 20 18 17 16 14 12 11 10 9 4 7 8 10 4 1 3 9 10 15 14 13 12 17 21 14 23 23 27 22 19 20 27 26 29 22 17
10 11 12 13 14 15 15 15 16 17 17 18 22 19 17 14 11 10 7 6 4 2 4 14 7 5 8 8 9 16 16 18 15 15 26 11 26 25 26 22 21 23 20 22 25 27 12
10 11 12 13 13 14 15 16 16 15 16 18 19 18 17 14 11 8 5 4 2 2 4 7 9 6 7 8 12 12 17 18 20 23 17 12 22 24 26 24 16 18 19 17 18 22 15
10 11 11 13 13 13 14 15 16 16 15 16 18 19 16 14 9 6 2 5 4 1 3 5 4 9 11 11 11 16 16 15 15 19 14 23 20 19 19 21 15 18 20 16 16 16 5
12 11 11 12 13 13 12 13 15 16 16 14 17 17 17 13 10 9 5 6 2 6 2 5 13 16 15 16 14 13 16 22 18 17 16 16 15 16 18 19 14 25 25 6 2 1 4
14 11 11 11 12 14 13 12 14 15 15 14 15 16 15 17 8 6 7 5 9 5 7 14 17 17 17 20 17 22 23 20 21 14 21 12 9 16 18 19 16 27 22 7 6 4 3
15 13 11 9 11 12 14 12 12 13 13 13 12 16 15 13 8 8 8 7 6 7 14 14 15 13 11 14 11 17 17 14 20 25 8 11 8 13 22 21 23 28 17 3 8 6 4
17 15 12 9 9 11 13 14 12 11 11 11 11 12 13 12 10 4 7 10 8 14 9 3 3 7 12 10 9 5 5 11 24 16 7 8 8 14 19 22 21 26 20 4 2 4 3
19 17 13 11 8 9 10 13 13 11 10 8 9 8 10 8 6 6 6 11 9 5 3 2 4 9 8 7 5 6 6 11 21 9 7 10 10 14 17 12 17 15 18 5 2 1 4
20 19 16 12 9 8 9 11 12 11 9 8 5 6 8 7 4 3 4 5 7 5 2 5 7 5 4 4 3 4 13 9 19 8 10 10 8 16 16 10 15 16 18 13 3 4 3
22 20 17 14 10 8 8 9 10 10 9 7 5 4 6 6 3 4 3 4 4 5 5 5 7 6 6 4 2 4 9 11 19 10 6 7 6 11 5 10 16 21 18 21 12 4 5
22 22 18 15 12 9 8 7 8 9 9 8 5 3 3 4 4 2 3 2 3 3 5 7 7 7 6 5 3 5 14 11 15 7 6 4 5 6 9 8 12 22 21 23 20 9 6
23 22 20 16 14 11 10 7 7 7 7 8 6 4 3 3 2 2 3 1 1 2 3 6 7 6 5 3 4 8 12 14 14 14 7 8 4 8 6 6 7 13 20 22 26 24 14
23 23 22 18 15 12 11 9 7 6 6 6 6 5 3 2 2 1 1 2 1 0 3 4 5 6 4 3 3 8 8 16 11 13 11 12 5 7 7 8 9 13 17 23 26 27 27
25 22 22 20 17 15 12 11 9 6 4 6 5 5 4 3 1 1 1 1 1 1 1 2 3 3 4 4 4 7 11 14 9 11 11 9 6 5 4 10 11 15 21 25 28 29 28
27 23 22 22 19 16 14 12 10 8 6 4 4 4 4 4 2 2 2 1 1 2 2 2 3 2 3 5 6 5 8 11 9 11 12 9 9 7 3 4 1 11 11 18 26 26 26
28 25 23 22 20 17 16 14 11 10 8 6 5 5 4 4 3 2 3 1 1 1 1 2 3 4 3 5 5 4 7 7 10 11 12 13 12 5 4 7 13 13 12 14 16 20 24
28 26 25 23 22 20 17 16 13 11 10 9 7 6 5 5 3 5 3 2 1 0 1 2 3 4 5 5 5 3 4 5 5 6 16 13 13 11 5 4 5 3 6 8 11 19 15
29 28 26 27 24 21 19 18 16 13 12 11 9 7 7 7 5 5 5 4 2 1 2 2 2 4 6 7 6 5 4 5 3 4 7 19 16 18 15 7 8 9 7 5 4 4 5
37 31 32 30 26 22 21 21 18 15 13 12 12 10 9 9 9 8 5 3 4 5 4 4 4 4 5 7 4 4 5 5 5 6 3 6 9 10 14 8 7 4 6 7 4 4 4
24 37 36 30 25 24 23 22 20 18 16 14 14 13 12 10 9 10 11 10 9 8 7 6 5 3 2 4 4 3 4 4 5 3 8 5 9 4 9 5 3 4 4 5 6 6 5
Wind_Direction
357 2 3 358 357 7 4 358 357 354 349 348 341 339 334 335 334 331 333 337 348 340 339 322 255 249 237 234 235 237 221 209 200 196 199 202 199 200 198 196 192 193 195 198 188 191 194
353 357 359 353 358 8 4 359 1 353 350 347 347 351 339 335 334 335 339 342 348 341 342 329 282 235 228 236 232 239 232 199 201 216 173 185 193 193 199 193 190 191 191 188 190 190 197
348 353 357 349 357 6 4 0 1 356 349 346 352 0 355 351 346 348 347 344 335 342 346 342 317 238 243 250 234 229 189 196 213 230 177 175 180 185 192 186 186 182 180 180 182 189 190
343 350 351 349 354 3 4 1 0 357 350 346 345 1 7 16 10 359 353 354 339 328 329 335 330 338 332 340 97 148 183 191 204 221 178 165 164 174 182 185 179 181 178 170 177 181 185
338 344 347 346 351 358 3 1 1 357 353 349 340 343 354 351 351 354 358 351 353 337 192 298 321 3 338 102 94 152 167 178 186 214 165 161 162 157 177 181 179 181 181 178 175 180 183
333 336 343 344 345 355 1 2 3 0 354 351 343 323 325 331 339 342 356 356 0 76 67 282 279 303 7 159 136 127 163 173 178 192 166 144 168 165 168 174 181 186 183 176 176 181 179
332 330 336 341 341 350 357 2 2 4 355 354 347 333 312 311 322 335 344 6 17 43 320 11 231 242 321 176 162 153 140 165 196 207 185 160 167 174 173 179 188 190 184 173 175 183 187
333 328 328 335 339 343 354 1 3 2 358 352 346 336 325 313 316 329 340 357 29 57 51 28 62 46 145 157 164 157 146 153 182 187 182 173 183 173 163 168 184 187 181 184 171 178 184
333 329 323 327 335 339 348 355 2 3 357 357 349 343 329 323 321 325 341 337 6 47 43 37 16 42 234 167 166 151 163 164 168 177 180 138 174 165 161 168 174 177 195 188 195 186 192
330 331 327 325 329 334 342 348 354 2 0 353 356 348 343 329 331 323 337 327 312 46 51 36 38 61 138 167 162 161 168 161 160 196 197 116 161 168 172 173 178 175 180 199 197 196 184
321 328 330 332 324 329 336 347 351 356 2 359 356 354 357 354 337 333 344 337 16 74 44 9 54 82 171 156 160 185 183 169 177 174 167 154 167 177 182 180 166 178 171 180 190 189 192
308 321 332 333 334 327 331 343 348 356 4 7 4 1 4 10 1 4 360 17 22 7 14 29 74 107 116 147 140 168 184 166 151 150 136 146 177 185 192 188 176 171 164 164 169 181 195
296 310 327 331 339 337 328 337 344 351 1 15 11 12 12 14 27 37 45 329 2 50 43 76 96 109 97 116 134 163 177 170 162 160 134 153 168 181 186 182 184 168 157 117 70 176 204
284 294 312 329 335 342 337 332 337 347 355 8 13 9 11 18 12 2 2 38 67 67 101 136 105 103 94 99 95 107 121 135 162 156 150 157 153 162 173 182 176 171 170 166 165 172 192
273 281 296 319 331 340 344 341 334 341 348 1 11 9 15 18 29 54 64 62 106 97 126 126 85 78 74 84 94 109 93 115 134 149 158 158 152 169 168 186 169 181 188 155 112 119 128
266 271 280 298 323 337 342 347 342 336 343 353 5 10 16 27 36 68 69 91 117 130 125 80 50 112 110 84 93 91 97 138 151 138 140 152 142 170 171 183 189 188 193 173 174 125 201
259 262 268 280 307 323 338 344 351 344 337 345 5 12 17 28 58 64 91 108 119 140 130 127 136 145 138 113 106 129 153 152 154 153 179 155 173 173 173 188 193 189 204 218 169 187 152
253 257 260 267 286 310 327 339 348 357 345 340 355 11 19 25 27 47 74 100 123 126 103 116 154 167 141 144 144 103 149 160 175 197 160 182 171 163 180 197 201 209 211 217 223 205 187
248 249 254 258 268 290 312 332 337 357 356 348 337 4 24 20 24 39 76 94 115 135 134 180 169 163 156 174 220 188 178 157 179 194 183 165 161 127 173 213 214 211 217 221 231 246 210
244 245 247 251 258 270 292 316 326 350 358 357 345 337 356 6 13 14 30 80 107 122 159 175 203 225 222 249 251 181 183 202 194 198 214 194 164 172 178 194 203 212 219 217 225 233 229
241 243 242 245 251 258 273 290 310 338 352 0 358 343 357 343 6 9 18 14 171 167 154 167 193 212 234 259 203 174 178 184 182 192 215 215 254 221 243 234 223 228 230 230 229 231 240
236 241 240 239 244 249 258 274 287 314 340 350 358 351 342 354 349 2 337 340 349 208 184 209 218 208 212 194 215 180 177 178 189 200 210 210 251 216 237 249 256 249 238 230 234 238 243
234 234 241 238 238 242 249 260 270 283 313 328 348 346 350 356 15 2 343 247 269 248 185 172 172 192 194 204 198 182 168 182 197 200 208 212 223 206 246 244 260 274 241 236 235 240 242
234 231 237 238 236 238 243 249 261 273 284 304 317 325 328 339 6 29 353 266 215 240 247 210 197 188 196 182 180 193 196 197 210 208 208 210 212 208 263 209 284 246 244 234 238 244 245
233 232 232 237 235 235 239 242 250 263 273 281 290 297 301 309 316 337 12 19 243 210 219 219 221 215 226 202 197 204 206 222 232 227 219 216 210 205 220 226 274 262 249 238 240 249 247
231 231 231 235 236 232 235 240 242 250 261 269 273 283 288 291 279 300 316 341 354 221 234 204 224 231 222 207 214 233 214 205 208 216 220 224 223 216 209 236 233 280 230 236 252 267 250
231 229 231 235 234 233 233 238 238 241 251 260 266 272 280 285 278 273 291 287 254 286 290 290 248 238 222 222 236 237 228 209 224 222 213 210 214 221 227 245 273 257 240 253 211 301 281
233 230 230 231 229 233 234 237 241 239 245 251 258 262 268 276 282 281 260 255 259 281 277 283 280 253 228 221 230 236 227 224 247 240 234 216 208 215 215 228 275 253 244 225 262 294 301
221 228 233 233 233 233 235 236 242 242 243 246 252 256 262 265 269 275 268 271 267 265 266 269 251 257 233 229 243 245 248 247 252 270 229 225 217 222 213 222 261 304 281 263 271 298 289